Weather History for Beirut, Lebanon

Change the Weather History Date:

Wednesday, January 30, 2013

  Actual Average Record
Temperature  
Mean Temperature 55 °F -  
Max Temperature 59 °F 61 °F 78 °F (2005)
Min Temperature 51 °F 51 °F 39 °F (2008)
Degree Days  
Heating Degree Days 10    
Growing Degree Days 5 (Base 50)    
Moisture  
Dew Point 46 °F    
Average Humidity 70    
Maximum Humidity 82    
Minimum Humidity 52    
Precipitation  
Precipitation 0.20 in 0.17 in - ()
Sea Level Pressure  
Sea Level Pressure 29.90 in    
Wind  
Wind Speed 7 mph ()    
Max Wind Speed 16 mph    
Max Gust Speed -    
Visibility 4.8 miles    
Events Rain , Thunderstorm    
Averages and records for this station are not official NWS values.
T = Trace of Precipitation, MM = Missing Value Source: Averaged Metar Reports

Daily Weather History Graph

Daily Weather History Graph

Search for Another Location

Airport:

Trip Planner

Search our weather history database for the weather conditions in past years. The results will help you decide how hot, cold, wet, or windy it might be!

Date:

Astronomy

Jan. 30, 2013 Rise Set
Actual Time 6:36 AM EET 5:06 PM EET
Civil Twilight 6:09 AM EET 5:33 PM EET
Nautical Twilight 5:39 AM EET 6:03 PM EET
Astronomical Twilight 5:10 AM EET 6:32 PM EET
Moon 8:30 PM EET (1/30) 8:04 AM EET (1/30)
Length of Visible Light 11h 23m
Length of Day
10h 30m
Waning Gibbous, 89% of the Moon is Illuminated
Jan 30
Waning Gibbous
Feb 3
Last Quarter
Feb 10
New
Feb 17
First Quarter
Feb 25
Full

Hourly Weather History & Observations

Time (EET) Temp. Dew Point Humidity Pressure Visibility Wind Dir Wind Speed Gust Speed Precip Events Conditions
12:00 AM 55.4 °F 46.4 °F 72% 30.01 in 6.2 mi South 5.8 mph - N/A   Mostly Cloudy
1:00 AM 57.2 °F 50.0 °F 77% 30.01 in 3.1 mi Variable 5.8 mph - N/A Rain Rain Showers
2:00 AM 56 °F 50 °F 75% 29.95 in 5 mi ESE 3.5 mph - -   Partly Cloudy
2:00 AM 55.4 °F 48.2 °F 77% 29.98 in 5.0 mi ESE 6.9 mph - N/A Rain Light Rain
3:00 AM 57.2 °F 48.2 °F 72% 29.98 in 4.3 mi ESE 5.8 mph - N/A Rain Light Rain
4:00 AM 57.2 °F 48.2 °F 72% 29.95 in 5.0 mi ESE 3.5 mph - N/A   Mostly Cloudy
5:00 AM 55.4 °F 50.0 °F 82% 29.95 in 5.0 mi SSW 15.0 mph - N/A Rain Light Rain
6:00 AM 55.4 °F 48.2 °F 77% 29.95 in 5.0 mi SSE 5.8 mph - N/A Rain Light Rain
7:00 AM 55.4 °F 48.2 °F 77% 29.95 in 5.0 mi ESE 3.5 mph - N/A   Mostly Cloudy
8:00 AM 55 °F 49 °F 74% 29.93 in 5 mi SSE 4.6 mph - -   Scattered Clouds
8:00 AM 55.4 °F 46.4 °F 72% 29.95 in 4.3 mi SSE 9.2 mph - N/A   Mostly Cloudy
9:00 AM 57.2 °F 44.6 °F 63% 29.95 in 4.3 mi SSE 8.1 mph - N/A   Mostly Cloudy
10:00 AM 59.0 °F 46.4 °F 63% 29.95 in 4.3 mi SSE 5.8 mph - N/A   Mostly Cloudy
11:00 AM 57.2 °F 46.4 °F 67% 29.92 in 4.3 mi South 6.9 mph - N/A   Light Drizzle
12:00 PM 57.2 °F 44.6 °F 63% 29.89 in 5.0 mi SSE 9.2 mph - N/A   Light Drizzle
1:00 PM 55.4 °F 48.2 °F 77% 29.89 in 5.0 mi SSW 11.5 mph - N/A   Light Drizzle
2:00 PM 55 °F 50 °F 76% 29.83 in 5 mi SSE 6.9 mph - - Rain Light Rain
2:00 PM 55.4 °F 48.2 °F 77% 29.86 in 5.0 mi South 11.5 mph - N/A   Overcast
3:00 PM 53.6 °F 46.4 °F 77% 29.86 in 5.0 mi South 15.0 mph - N/A Rain Light Rain
4:00 PM 51.8 °F 46.4 °F 82% 29.86 in 5.0 mi South 16.1 mph - N/A Rain Light Rain
5:00 PM 53.6 °F 42.8 °F 67% 29.83 in 5.0 mi SE 9.2 mph - N/A Rain Light Rain
6:00 PM 53.6 °F 42.8 °F 67% 29.83 in 5.0 mi SSE 12.7 mph - N/A Rain Rain
7:00 PM 55.4 °F 41.0 °F 58% 29.83 in 5.0 mi SSE 10.4 mph - N/A   Mostly Cloudy
8:00 PM 55 °F 42 °F 52% 29.78 in 5 mi SE 3.5 mph - - Thunderstorm Thunderstorm
8:00 PM 55.4 °F 41.0 °F 58% 29.80 in 5.0 mi SSE 6.9 mph - N/A   Mostly Cloudy
9:00 PM 55.4 °F 41.0 °F 58% 29.80 in 5.0 mi SE 4.6 mph - N/A   Mostly Cloudy
10:00 PM 55.4 °F 41.0 °F 58% 29.77 in 5.0 mi SSE 8.1 mph - N/A Rain , Thunderstorm Light Thunderstorms and Rain
11:00 PM 51.8 °F 44.6 °F 76% 29.80 in 3.7 mi South 13.8 mph - N/A Rain , Thunderstorm Thunderstorms and Rain